Tracking 30995 objects as of 5-Jul-2025
HD Live streaming from Space Station
objects crossing your sky now

ARIANE 5 DEB

Track ARIANE 5 DEB now!


NORAD ID: 43384
Int'l Code: 2008-030G
Perigee: 441.8 km
Apogee: 35,226.3 km
Inclination: 1.9 °
Period: 624.6 minutes
Semi major axis: 24205 km
RCS: Unknown
Launch date: June 12, 2008
Source: France (FR)
Launch site: FRENCH GUIANA (FRGUI)

Note: This is SATELLITE DEBRIS
Your satellite tracking list
Your tracking list is empty




NASA's NSSDC Master Catalog

Two Line Element Set (TLE):
1 43384U 08030G   25185.08950791  .00000124  00000-0  50330-3 0  9994
2 43384   1.9401  49.5948 7185372 160.3857 254.6663  2.30538686138163
Source of the keplerian elements: AFSPC